Overview Statistics Trail Chart Weather Telemetry Raw packets
 

This is the latest recevied weather packets stored in our database for station/object LU3MCV-13. If no packets are shown the sender has not sent any weather packets the latest 10 day(s).

<< 31 32 33 34 35 36 37 >>
Time Temp. Humidity Pressure Rain* Wind** Luminosity Snow
1777297270 10° C 16% 937.4 hPa - - - -
1777296370 10° C 16% 937.7 hPa - - - -
1777295470 8.89° C 18% 937.5 hPa - - - -
1777294570 7.78° C 20% 937.5 hPa - - - -
1777293670 7.78° C 21% 937.7 hPa - - - -
1777292770 7.22° C 23% 937.8 hPa - - - -
1777291870 6.11° C 25% 937.9 hPa - - - -
1777290969 5° C 26% 938.1 hPa - - - -
1777290070 3.89° C 28% 938.1 hPa - - - -
1777289170 3.89° C 28% 938.1 hPa - - - -
1777289162 3.89° C 28% 938 hPa - - - -
1777288263 3.89° C 27% 938.3 hPa - - - -
1777287363 5° C 24% 938.3 hPa - - - -
1777286463 6.11° C 23% 938.5 hPa - - - -
1777285563 7.22° C 23% 938.9 hPa - - - -
1777284663 7.22° C 23% 939.2 hPa - - - -
1777283763 6.11° C 23% 939.3 hPa - - - -
1777282863 6.11° C 23% 939.3 hPa - - - -
1777281963 5° C 23% 939.5 hPa - - - -
1777281063 6.11° C 23% 939.5 hPa - - - -
1777280163 6.11° C 23% 939.5 hPa - - - -
1777279263 6.11° C 23% 939.8 hPa - - - -
1777278363 6.11° C 23% 940 hPa - - - -
1777277463 6.11° C 23% 940 hPa - - - -
1777276563 6.11° C 23% 940.1 hPa - - - -

* Rain since midnight (hover to see other rain measurements)
** Current wind speed in m/s (hover to see current wind gust speed)